SCP
-0 0 0 0 0 0 0 0 0 0 0 0 0 0 0 0 0 0 0 0 0 0 0 0 0 0 0 0 4 5 6 6 8 5 2 2 1 1 1 0 1 1 1 0
0 0 0 0 0 0 0 0 0 0 0 0 0 0 0 0 0 0 0 0 0 0 0 0 0 0 0 0 5 6 6 7 8 6 4 2 1 1 1 1 2 1 1 1
0 0 0 0 0 0 0 0 0 0 0 0 0 0 0 0 0 0 0 0 0 0 0 0 0 0 0 0 6 5 7 6 7 6 5 4 3 3 2 2 3 3 2 1
0 -0 0 0 0 0 -0 0 0 0 0 0 0 0 0 0 0 0 0 0 0 0 0 0 0 0 0 0 1 2 8 7 8 8 6 4 4 2 1 1 1 1 1 1
-0 0 0 0 0 0 0 0 0 0 0 0 0 0 0 0 0 0 0 0 0 0 0 0 0 0 0 0 0 3 7 8 6 6 7 7 4 3 2 1 2 2 2 1
0 0 0 0 0 0 0 0 0 0 0 0 0 0 0 0 0 0 0 0 0 0 0 0 0 0 0 0 0 2 6 8 6 6 5 7 5 4 2 2 4 2 1 1
-0 0 0 0 -0 0 0 0 0 0 0 0 0 0 0 0 0 0 0 0 0 0 0 0 0 0 0 0 0 0 4 7 7 7 7 8 7 7 5 4 3 2 2 1
0 -0 0 0 0 -0 -0 0 0 0 0 0 0 0 0 0 -0 0 0 0 0 0 0 0 0 0 0 0 0 0 2 5 4 8 8 7 7 6 5 4 3 3 3 3
0 0 0 -0 -0 0 -0 0 0 0 0 0 0 0 0 0 0 0 0 0 0 0 0 0 0 0 0 0 0 0 1 4 5 6 10 7 8 7 5 4 6 4 4 4
0 0 0 -0 0 0 0 -0 -0 0 0 0 0 -0 -0 0 0 0 0 0 0 0 0 0 0 0 0 0 0 0 0 2 4 6 9 9 8 9 9 8 7 4 7 6
0 0 0 -0 0 -0 0 -0 -0 0 0 0 -0 0 -0 0 0 0 0 0 0 0 0 0 0 0 0 0 0 0 0 1 3 5 7 6 8 10 9 6 4 8 10 7
0 0 0 -0 0 0 -0 -0 -0 -0 0 0 -0 -0 0 0 0 0 0 0 0 0 0 0 0 0 0 0 0 0 0 0 1 3 4 3 3 4 3 4 6 17 8 6
0 0 0 0 0 0 0 0 -0 -0 0 -0 0 0 0 -0 0 0 0 0 0 0 0 0 0 0 0 0 0 0 0 0 1 2 4 4 8 6 1 1 3 2 7 5
0 0 0 0 -0 -0 -0 0 0 -0 -0 0 0 0 0 0 0 0 0 0 0 0 0 0 0 0 0 0 0 0 0 0 1 2 3 6 7 12 7 1 3 1 5 7
0 0 0 0 -0 -0 -0 -0 0 0 -0 -0 0 0 0 0 0 0 -0 0 0 0 0 0 0 0 0 0 0 0 0 0 0 1 2 5 6 6 6 4 4 3 4 5
0 0 0 -0 -0 -0 -0 -0 0 -0 -0 -0 0 0 0 0 0 0 0 0 0 0 0 0 0 1 0 0 0 0 1 0 0 1 2 5 6 7 5 4 3 5 5 7
0 0 0 0 -0 -0 0 0 0 0 0 0 -0 0 -0 -0 0 0 0 0 0 0 0 0 0 0 1 1 1 2 1 0 0 1 2 6 9 8 7 7 6 6 7 6
0 0 0 0 -0 0 0 0 0 0 -0 0 -0 -0 -0 -0 -0 0 0 0 0 0 0 0 0 0 0 0 1 3 1 1 0 2 5 10 9 10 10 8 7 6 4 2
0 0 0 0 0 0 0 0 -0 0 0 0 0 0 0 0 -0 0 0 0 0 0 0 0 0 0 0 0 1 2 1 2 5 4 5 5 6 6 6 4 3 2 1 1
-0 0 0 0 0 0 0 -0 -0 0 0 0 0 0 0 0 0 -0 0 0 0 -0 -0 0 0 0 0 0 2 2 3 5 4 2 2 2 1 1 1 0 0 0 0 0
-0 0 0 0 0 0 -0 -0 -0 0 0 0 0 0 0 0 0 0 -0 0 0 0 0 0 0 0 0 0 1 1 1 0 0 0 0 0 0 0 0 0 0 0 0 0
-0 -0 0 0 0 0 0 -0 0 0 0 0 -0 0 0 0 0 0 -0 -0 0 0 0 0 0 0 0 0 0 0 0 0 0 0 0 0 0 0 0 0 0 0 0 0
-0 -0 0 0 0 0 -0 -0 0 0 0 -0 -0 -0 0 0 0 -0 0 0 -0 0 0 0 0 0 0 0 0 0 0 0 0 0 0 0 0 0 0 0 0 0 0 0
-0 -0 0 0 0 -0 0 -0 0 0 0 0 -0 -0 0 0 0 0 0 0 0 0 0 0 0 0 0 0 0 0 0 0 0 0 0 0 0 0 0 0 0 0 0 0
-0 -0 -0 0 0 -0 -0 -0 -0 -0 -0 0 0 -0 -0 0 0 0 0 0 0 0 0 0 0 0 0 0 0 0 0 0 0 0 0 0 0 0 0 0 0 0 0 0
-0 -0 0 0 0 -0 -0 -0 -0 -0 0 0 0 -0 -0 -0 0 0 0 0 0 0 -0 0 0 0 0 0 0 0 0 0 0 0 0 0 0 0 0 0 0 0 0 0
Wind_Speed_500mb
45 26 29 47 32 58 53 58 64 52 42 35 46 42 41 43 52 37 38 42 39 38 45 58 59 58 57 68 71 73 77 87 78 84 77 69 65 57 53 48 49 45 46 46
34 39 44 40 35 33 42 50 55 50 50 48 48 47 45 41 44 50 44 46 52 53 49 48 53 52 50 55 69 74 76 86 88 88 81 71 65 57 53 55 57 57 51 52
36 44 50 38 35 34 43 50 45 51 52 53 55 58 55 51 58 70 71 70 66 67 59 56 55 52 49 58 66 67 80 88 97 86 80 70 63 58 58 56 57 65 58 55
36 34 27 34 36 43 35 38 45 45 40 36 49 44 50 50 54 57 69 78 73 72 74 66 62 63 58 59 60 63 72 86 95 95 83 80 74 71 65 57 58 60 62 59
42 42 40 34 35 37 44 44 40 34 39 44 57 34 39 48 45 45 41 54 82 82 80 79 73 66 65 55 60 65 70 82 90 96 83 87 77 66 61 54 57 52 53 53
34 26 31 34 39 33 36 41 43 40 30 25 45 43 44 43 53 41 45 58 62 60 66 76 78 73 71 63 64 67 71 72 88 88 95 84 87 67 64 64 61 56 47 54
44 25 37 12 26 32 19 29 22 22 29 33 37 43 44 43 48 45 34 40 51 49 57 65 73 77 75 74 66 70 73 77 81 91 91 79 82 75 69 74 69 61 57 59
24 35 10 4 34 41 41 18 15 22 29 28 19 25 44 56 52 53 51 45 32 35 39 55 66 71 74 73 72 73 75 75 71 89 94 95 86 88 74 79 82 68 67 62
29 25 55 41 23 3 24 35 31 35 41 30 18 24 45 45 16 15 17 30 46 46 33 44 56 58 64 72 70 72 73 72 76 81 99 98 99 95 91 86 86 75 65 65
21 33 29 21 37 23 17 35 16 15 20 32 25 39 30 37 35 28 17 32 34 37 41 33 34 40 47 55 61 71 72 74 74 80 95 98 100 96 89 84 88 72 66 66
32 11 24 44 13 27 15 23 23 22 17 8 21 8 30 12 16 16 14 27 12 10 18 24 35 36 37 40 54 59 72 75 71 80 92 95 85 87 89 97 88 69 77 70
20 13 27 48 20 7 8 14 10 11 20 26 33 26 13 37 14 29 16 17 15 17 18 21 18 27 38 44 47 48 57 71 71 70 74 91 79 60 60 61 70 87 71 73
13 8 19 22 2 13 29 13 10 12 21 33 26 19 20 44 7 5 12 14 3 12 23 30 28 26 31 42 48 47 51 65 70 68 63 72 92 118 112 79 47 58 82 73
18 9 21 20 40 44 37 37 28 19 9 25 29 33 56 19 36 46 58 21 24 28 35 35 35 32 29 29 46 48 46 57 67 67 62 57 66 80 90 93 86 106 80 76
4 15 32 41 43 42 43 41 31 30 34 32 42 47 41 30 13 37 40 36 31 30 29 30 28 31 34 26 32 38 46 44 62 69 62 61 70 76 81 90 88 66 72 73
7 12 37 45 33 22 29 31 31 27 27 41 46 58 52 50 59 55 43 42 42 36 34 34 39 41 34 27 25 35 37 41 50 66 69 65 67 81 84 86 81 82 77 75
6 8 12 18 41 35 12 3 7 20 36 40 32 44 44 47 41 44 42 28 30 31 30 31 31 39 38 18 30 30 39 43 45 58 65 66 69 76 79 83 88 91 92 79
14 20 5 20 29 6 12 19 21 26 33 21 24 32 37 45 51 29 18 25 28 30 33 35 35 36 39 36 38 32 36 44 46 50 56 69 76 80 84 94 96 93 84 77
22 3 8 9 17 22 8 18 34 25 31 6 18 24 32 41 34 1 34 26 26 30 34 38 39 41 40 43 40 36 39 44 51 62 69 76 77 88 86 97 91 82 78 70
11 7 3 11 11 7 8 53 72 16 6 16 24 18 22 35 11 9 39 29 27 27 26 33 38 39 36 33 28 35 34 43 48 61 76 82 90 92 93 96 88 79 75 71
15 13 9 16 8 2 34 54 68 14 16 37 31 27 29 12 15 27 32 34 26 21 19 21 24 29 27 26 34 44 54 58 57 62 76 81 85 93 95 93 87 86 75 68
8 12 10 10 8 10 60 29 17 20 33 31 31 35 33 34 37 41 40 47 46 34 25 15 8 8 21 33 41 51 59 58 58 65 69 76 88 91 90 94 88 84 84 79
7 3 6 5 7 23 36 39 42 34 28 32 34 38 35 45 46 50 51 57 58 51 38 37 43 40 34 32 43 59 63 65 66 64 72 83 89 89 92 96 94 85 77 65
9 17 5 11 5 25 24 44 37 32 30 34 39 43 46 49 53 55 60 62 63 65 58 46 56 66 64 54 54 66 66 69 73 83 86 87 93 93 90 83 78 72 63 53
8 17 21 5 10 31 20 40 34 29 31 36 38 41 43 45 55 52 58 63 69 72 72 63 58 64 68 66 64 60 67 76 82 87 91 87 88 87 85 78 62 56 46 45
4 6 11 6 15 9 12 29 29 27 30 30 29 37 42 43 46 51 57 55 62 70 74 79 65 54 56 58 62 62 61 63 76 85 85 85 88 85 85 79 76 59 55 52
Wind_Direction_500mb
295 241 263 286 315 330 294 260 271 280 287 250 261 249 241 243 240 224 224 237 243 240 237 231 226 220 221 220 205 204 203 203 201 200 198 199 201 201 199 201 199 208 199 199
279 268 268 264 287 299 299 291 283 269 269 272 270 266 264 265 268 268 251 236 245 245 235 234 227 219 215 222 204 203 205 202 201 200 199 201 199 204 201 201 203 199 206 199
308 301 305 294 253 254 285 288 287 281 277 259 255 252 249 251 255 254 252 249 245 246 241 231 228 223 223 225 206 203 205 206 204 200 200 199 200 200 200 199 200 204 204 201
295 288 293 303 287 293 259 255 271 312 298 280 251 259 250 236 240 242 243 245 241 235 240 241 231 225 222 220 213 207 208 208 207 202 199 199 194 200 203 204 210 211 212 210
293 297 289 292 292 299 288 275 273 281 262 271 265 256 250 255 255 242 246 241 231 232 233 236 231 229 221 218 218 207 210 210 208 206 199 200 198 201 198 197 199 194 199 194
281 295 288 280 281 276 280 278 276 269 260 252 248 254 258 245 238 245 244 243 243 236 231 231 230 226 221 217 214 209 203 215 211 208 203 203 200 196 194 192 190 188 194 192
322 354 333 243 322 291 306 261 256 266 249 256 252 231 243 256 257 252 244 248 231 235 227 228 229 224 219 215 214 212 205 208 210 209 210 204 202 191 196 190 188 188 190 190
333 319 182 186 289 301 307 209 265 255 253 266 272 272 239 241 243 253 251 244 249 242 235 228 226 222 220 218 209 212 206 205 208 210 210 208 203 197 194 193 194 189 187 187
318 305 321 292 306 84 308 297 289 284 277 267 245 288 282 254 253 213 247 258 242 240 246 239 224 224 219 218 210 209 212 203 207 208 212 211 207 197 191 197 192 185 183 185
300 301 299 323 319 271 256 294 288 229 258 253 260 235 221 232 210 205 246 217 234 225 225 236 236 217 219 222 215 206 216 208 207 210 211 212 208 197 191 196 185 178 176 185
307 257 286 298 259 295 323 261 207 246 263 270 277 352 14 105 309 90 51 40 34 213 232 225 235 238 221 225 220 205 213 209 205 210 210 207 208 188 190 196 182 177 180 194
318 290 293 296 300 343 183 294 284 280 264 286 295 262 307 320 87 98 321 96 64 359 347 289 282 243 226 225 224 223 213 212 209 213 208 213 221 219 195 184 174 184 188 196
335 261 306 306 159 263 331 293 235 194 263 266 280 285 160 216 94 322 188 224 242 302 298 295 280 262 234 238 226 219 210 213 209 211 209 211 206 216 240 236 227 201 187 188
281 241 239 269 293 311 300 305 288 228 259 289 278 266 277 60 338 320 303 305 310 298 290 279 271 262 258 238 231 222 208 211 209 207 203 197 195 196 202 206 210 197 178 173
286 273 277 279 281 284 285 287 290 284 271 276 291 287 287 306 231 227 262 296 296 296 286 288 274 256 251 244 242 243 217 210 207 203 202 191 188 185 188 183 193 187 169 167
315 276 305 296 295 275 270 295 316 312 337 319 312 294 299 331 320 303 306 309 301 282 284 288 290 294 265 250 252 237 236 213 206 207 197 190 183 183 183 183 175 175 170 166
255 278 307 294 327 314 248 73 6 321 310 304 288 298 318 308 312 313 304 304 284 287 290 286 282 275 294 262 270 266 228 216 206 207 197 182 185 182 175 172 173 171 168 165
250 287 298 294 319 4 66 54 320 278 287 292 289 293 301 295 290 286 9 323 305 304 298 293 282 273 266 259 261 260 230 213 203 199 186 182 182 178 170 173 169 168 173 170
212 253 286 301 310 279 76 350 335 319 310 266 289 321 314 316 303 93 -0 334 320 306 298 290 284 278 268 255 257 249 221 217 180 189 190 192 190 178 175 175 169 174 170 161
4 180 246 300 293 327 357 345 330 330 253 329 20 348 341 347 31 348 344 337 321 316 299 288 285 286 273 252 250 230 205 179 176 184 190 189 184 183 175 177 173 167 157 155
348 344 297 315 288 345 10 341 326 353 329 357 10 4 357 8 9 358 7 12 4 353 314 293 290 275 250 224 216 191 191 193 183 177 174 173 177 177 173 172 169 160 151 148
8 324 343 321 315 346 2 340 357 306 327 359 12 15 18 21 21 17 20 16 22 34 30 54 102 180 162 161 192 172 175 177 174 168 167 168 167 170 167 163 152 149 150 152
17 46 289 296 312 340 338 327 347 351 11 22 31 26 25 28 21 26 26 22 29 40 46 65 82 99 110 136 152 164 151 163 167 165 161 158 160 158 156 155 152 151 156 149
331 352 254 310 39 338 352 353 355 14 30 36 40 36 33 26 24 30 29 27 32 42 51 66 84 89 90 104 119 131 144 153 158 154 150 143 145 141 147 150 148 144 138 141
258 320 316 288 325 322 7 358 3 23 41 43 47 38 32 29 27 28 33 36 36 41 51 61 79 88 90 106 111 122 133 141 143 146 146 144 141 147 143 135 135 134 140 147
19 298 354 309 14 309 315 355 16 35 36 41 38 35 36 33 38 30 29 33 42 46 56 64 70 82 92 107 112 119 128 143 140 134 143 147 146 143 143 141 137 135 138 141
Wind_Speed_850mb
45 26 29 47 32 58 53 58 64 52 42 35 46 42 41 43 52 37 38 42 39 38 45 58 59 58 57 68 71 73 77 87 78 84 77 69 65 57 53 48 49 45 46 46
34 39 44 40 35 33 42 50 55 50 50 48 48 47 45 41 44 50 44 46 52 53 49 48 53 52 50 55 69 74 76 86 88 88 81 71 65 57 53 55 57 57 51 52
36 44 50 38 35 34 43 50 45 51 52 53 55 58 55 51 58 70 71 70 66 67 59 56 55 52 49 58 66 67 80 88 97 86 80 70 63 58 58 56 57 65 58 55
36 34 27 34 36 43 35 38 45 45 40 36 49 44 50 50 54 57 69 78 73 72 74 66 62 63 58 59 60 63 72 86 95 95 83 80 74 71 65 57 58 60 62 59
42 42 40 34 35 37 44 44 40 34 39 44 57 34 39 48 45 45 41 54 82 82 80 79 73 66 65 55 60 65 70 82 90 96 83 87 77 66 61 54 57 52 53 53
34 26 31 34 39 33 36 41 43 40 30 25 45 43 44 43 53 41 45 58 62 60 66 76 78 73 71 63 64 67 71 72 88 88 95 84 87 67 64 64 61 56 47 54
44 25 37 12 26 32 19 29 22 22 29 33 37 43 44 43 48 45 34 40 51 49 57 65 73 77 75 74 66 70 73 77 81 91 91 79 82 75 69 74 69 61 57 59
24 35 10 4 34 41 41 18 15 22 29 28 19 25 44 56 52 53 51 45 32 35 39 55 66 71 74 73 72 73 75 75 71 89 94 95 86 88 74 79 82 68 67 62
29 25 55 41 23 3 24 35 31 35 41 30 18 24 45 45 16 15 17 30 46 46 33 44 56 58 64 72 70 72 73 72 76 81 99 98 99 95 91 86 86 75 65 65
21 33 29 21 37 23 17 35 16 15 20 32 25 39 30 37 35 28 17 32 34 37 41 33 34 40 47 55 61 71 72 74 74 80 95 98 100 96 89 84 88 72 66 66
32 11 24 44 13 27 15 23 23 22 17 8 21 8 30 12 16 16 14 27 12 10 18 24 35 36 37 40 54 59 72 75 71 80 92 95 85 87 89 97 88 69 77 70
20 13 27 48 20 7 8 14 10 11 20 26 33 26 13 37 14 29 16 17 15 17 18 21 18 27 38 44 47 48 57 71 71 70 74 91 79 60 60 61 70 87 71 73
13 8 19 22 2 13 29 13 10 12 21 33 26 19 20 44 7 5 12 14 3 12 23 30 28 26 31 42 48 47 51 65 70 68 63 72 92 118 112 79 47 58 82 73
18 9 21 20 40 44 37 37 28 19 9 25 29 33 56 19 36 46 58 21 24 28 35 35 35 32 29 29 46 48 46 57 67 67 62 57 66 80 90 93 86 106 80 76
4 15 32 41 43 42 43 41 31 30 34 32 42 47 41 30 13 37 40 36 31 30 29 30 28 31 34 26 32 38 46 44 62 69 62 61 70 76 81 90 88 66 72 73
7 12 37 45 33 22 29 31 31 27 27 41 46 58 52 50 59 55 43 42 42 36 34 34 39 41 34 27 25 35 37 41 50 66 69 65 67 81 84 86 81 82 77 75
6 8 12 18 41 35 12 3 7 20 36 40 32 44 44 47 41 44 42 28 30 31 30 31 31 39 38 18 30 30 39 43 45 58 65 66 69 76 79 83 88 91 92 79
14 20 5 20 29 6 12 19 21 26 33 21 24 32 37 45 51 29 18 25 28 30 33 35 35 36 39 36 38 32 36 44 46 50 56 69 76 80 84 94 96 93 84 77
22 3 8 9 17 22 8 18 34 25 31 6 18 24 32 41 34 1 34 26 26 30 34 38 39 41 40 43 40 36 39 44 51 62 69 76 77 88 86 97 91 82 78 70
11 7 3 11 11 7 8 53 72 16 6 16 24 18 22 35 11 9 39 29 27 27 26 33 38 39 36 33 28 35 34 43 48 61 76 82 90 92 93 96 88 79 75 71
15 13 9 16 8 2 34 54 68 14 16 37 31 27 29 12 15 27 32 34 26 21 19 21 24 29 27 26 34 44 54 58 57 62 76 81 85 93 95 93 87 86 75 68
8 12 10 10 8 10 60 29 17 20 33 31 31 35 33 34 37 41 40 47 46 34 25 15 8 8 21 33 41 51 59 58 58 65 69 76 88 91 90 94 88 84 84 79
7 3 6 5 7 23 36 39 42 34 28 32 34 38 35 45 46 50 51 57 58 51 38 37 43 40 34 32 43 59 63 65 66 64 72 83 89 89 92 96 94 85 77 65
9 17 5 11 5 25 24 44 37 32 30 34 39 43 46 49 53 55 60 62 63 65 58 46 56 66 64 54 54 66 66 69 73 83 86 87 93 93 90 83 78 72 63 53
8 17 21 5 10 31 20 40 34 29 31 36 38 41 43 45 55 52 58 63 69 72 72 63 58 64 68 66 64 60 67 76 82 87 91 87 88 87 85 78 62 56 46 45
4 6 11 6 15 9 12 29 29 27 30 30 29 37 42 43 46 51 57 55 62 70 74 79 65 54 56 58 62 62 61 63 76 85 85 85 88 85 85 79 76 59 55 52
Wind_Direction_850mb
295 241 263 286 315 330 294 260 271 280 287 250 261 249 241 243 240 224 224 237 243 240 237 231 226 220 221 220 205 204 203 203 201 200 198 199 201 201 199 201 199 208 199 199
279 268 268 264 287 299 299 291 283 269 269 272 270 266 264 265 268 268 251 236 245 245 235 234 227 219 215 222 204 203 205 202 201 200 199 201 199 204 201 201 203 199 206 199
308 301 305 294 253 254 285 288 287 281 277 259 255 252 249 251 255 254 252 249 245 246 241 231 228 223 223 225 206 203 205 206 204 200 200 199 200 200 200 199 200 204 204 201
295 288 293 303 287 293 259 255 271 312 298 280 251 259 250 236 240 242 243 245 241 235 240 241 231 225 222 220 213 207 208 208 207 202 199 199 194 200 203 204 210 211 212 210
293 297 289 292 292 299 288 275 273 281 262 271 265 256 250 255 255 242 246 241 231 232 233 236 231 229 221 218 218 207 210 210 208 206 199 200 198 201 198 197 199 194 199 194
281 295 288 280 281 276 280 278 276 269 260 252 248 254 258 245 238 245 244 243 243 236 231 231 230 226 221 217 214 209 203 215 211 208 203 203 200 196 194 192 190 188 194 192
322 354 333 243 322 291 306 261 256 266 249 256 252 231 243 256 257 252 244 248 231 235 227 228 229 224 219 215 214 212 205 208 210 209 210 204 202 191 196 190 188 188 190 190
333 319 182 186 289 301 307 209 265 255 253 266 272 272 239 241 243 253 251 244 249 242 235 228 226 222 220 218 209 212 206 205 208 210 210 208 203 197 194 193 194 189 187 187
318 305 321 292 306 84 308 297 289 284 277 267 245 288 282 254 253 213 247 258 242 240 246 239 224 224 219 218 210 209 212 203 207 208 212 211 207 197 191 197 192 185 183 185
300 301 299 323 319 271 256 294 288 229 258 253 260 235 221 232 210 205 246 217 234 225 225 236 236 217 219 222 215 206 216 208 207 210 211 212 208 197 191 196 185 178 176 185
307 257 286 298 259 295 323 261 207 246 263 270 277 352 14 105 309 90 51 40 34 213 232 225 235 238 221 225 220 205 213 209 205 210 210 207 208 188 190 196 182 177 180 194
318 290 293 296 300 343 183 294 284 280 264 286 295 262 307 320 87 98 321 96 64 359 347 289 282 243 226 225 224 223 213 212 209 213 208 213 221 219 195 184 174 184 188 196
335 261 306 306 159 263 331 293 235 194 263 266 280 285 160 216 94 322 188 224 242 302 298 295 280 262 234 238 226 219 210 213 209 211 209 211 206 216 240 236 227 201 187 188
281 241 239 269 293 311 300 305 288 228 259 289 278 266 277 60 338 320 303 305 310 298 290 279 271 262 258 238 231 222 208 211 209 207 203 197 195 196 202 206 210 197 178 173
286 273 277 279 281 284 285 287 290 284 271 276 291 287 287 306 231 227 262 296 296 296 286 288 274 256 251 244 242 243 217 210 207 203 202 191 188 185 188 183 193 187 169 167
315 276 305 296 295 275 270 295 316 312 337 319 312 294 299 331 320 303 306 309 301 282 284 288 290 294 265 250 252 237 236 213 206 207 197 190 183 183 183 183 175 175 170 166
255 278 307 294 327 314 248 73 6 321 310 304 288 298 318 308 312 313 304 304 284 287 290 286 282 275 294 262 270 266 228 216 206 207 197 182 185 182 175 172 173 171 168 165
250 287 298 294 319 4 66 54 320 278 287 292 289 293 301 295 290 286 9 323 305 304 298 293 282 273 266 259 261 260 230 213 203 199 186 182 182 178 170 173 169 168 173 170
212 253 286 301 310 279 76 350 335 319 310 266 289 321 314 316 303 93 -0 334 320 306 298 290 284 278 268 255 257 249 221 217 180 189 190 192 190 178 175 175 169 174 170 161
4 180 246 300 293 327 357 345 330 330 253 329 20 348 341 347 31 348 344 337 321 316 299 288 285 286 273 252 250 230 205 179 176 184 190 189 184 183 175 177 173 167 157 155
348 344 297 315 288 345 10 341 326 353 329 357 10 4 357 8 9 358 7 12 4 353 314 293 290 275 250 224 216 191 191 193 183 177 174 173 177 177 173 172 169 160 151 148
8 324 343 321 315 346 2 340 357 306 327 359 12 15 18 21 21 17 20 16 22 34 30 54 102 180 162 161 192 172 175 177 174 168 167 168 167 170 167 163 152 149 150 152
17 46 289 296 312 340 338 327 347 351 11 22 31 26 25 28 21 26 26 22 29 40 46 65 82 99 110 136 152 164 151 163 167 165 161 158 160 158 156 155 152 151 156 149
331 352 254 310 39 338 352 353 355 14 30 36 40 36 33 26 24 30 29 27 32 42 51 66 84 89 90 104 119 131 144 153 158 154 150 143 145 141 147 150 148 144 138 141
258 320 316 288 325 322 7 358 3 23 41 43 47 38 32 29 27 28 33 36 36 41 51 61 79 88 90 106 111 122 133 141 143 146 146 144 141 147 143 135 135 134 140 147
19 298 354 309 14 309 315 355 16 35 36 41 38 35 36 33 38 30 29 33 42 46 56 64 70 82 92 107 112 119 128 143 140 134 143 147 146 143 143 141 137 135 138 141